Location: Pcim
(49.7500°N, 19.9670°E)
Time: 20:37:37
(UTC+02:00)

MOZHAYETS 4 - Pass Details

Date: 01 May 2024
Orbit: 652 x 670 km, 98.3° (Epoch: 20 May)

Event Time Altitude Azimuth Distance (km) Brightness Sun altitude
Rises 04:21:51 0° 182° (S) 3,006 10.7 -8.5°
Reaches altitude 10° 04:24:10 10° 190° (S) 2,097 9.9 -8.2°
Maximum altitude 04:28:32 43° 261° (W) 950 8.1 -7.6°
Drops below altitude 10° 04:32:55 10° 333° (NNW) 2,108 10.4 -7.0°
Sets 04:35:16 0° 341° (NNW) 3,025 11.3 -6.7°
